| time (UTC) | temp F | wind direction | speed MPH | gust MPH | rain 1hr in | rain 24hr in | rain mn in | humidity % | barometer mb |
| 20260505054504 | 57 | 213 | 7.0 | 14.0 | 0.00 | 0.00 | 0.00 | 62 | 1010.4 |
| 20260505054006 | 57 | 205 | 10.0 | 15.0 | 0.00 | 0.00 | 0.00 | 62 | 1010.3 |
| 20260505053504 | 57 | 218 | 7.0 | 15.0 | 0.00 | 0.00 | 0.00 | 61 | 1010.4 |
| 20260505053006 | 57 | 215 | 9.0 | 14.0 | 0.00 | 0.00 | 0.00 | 61 | 1010.3 |
| 20260505051504 | 57 | 220 | 10.0 | 16.0 | 0.00 | 0.00 | 0.00 | 61 | 1010.3 |
| 20260505051006 | 57 | 218 | 11.0 | 17.0 | 0.00 | 0.00 | 0.00 | 61 | 1010.3 |
| 20260505050504 | 57 | 217 | 10.0 | 15.0 | 0.00 | 0.00 | 0.00 | 61 | 1010.4 |
| 20260505041504 | 58 | 213 | 7.0 | 10.0 | 0.00 | 0.00 | 0.00 | 59 | 1010.5 |
| 20260505041005 | 58 | 220 | 7.0 | 10.0 | 0.00 | 0.00 | 0.00 | 59 | 1010.5 |
| 20260505040504 | 58 | 212 | 7.0 | 12.0 | 0.00 | 0.00 | 0.00 | 58 | 1010.5 |
| 20260505040004 | 58 | 214 | 6.0 | 13.0 | 0.00 | 0.00 | 0.00 | 58 | 1010.4 |
| 20260505035504 | 58 | 215 | 9.0 | 13.0 | 0.00 | 0.00 | 0.00 | 58 | 1010.4 |
| 20260505035006 | 58 | 207 | 7.0 | 12.0 | 0.00 | 0.00 | 0.00 | 58 | 1010.3 |
| 20260505034504 | 59 | 208 | 5.0 | 8.0 | 0.00 | 0.00 | 0.00 | 58 | 1010.3 |
| 20260505034006 | 59 | 213 | 5.0 | 14.0 | 0.00 | 0.00 | 0.00 | 57 | 1010.4 |
| 20260505033504 | 59 | 211 | 6.0 | 17.0 | 0.00 | 0.00 | 0.00 | 57 | 1010.3 |
| 20260505033006 | 59 | 199 | 9.0 | 15.0 | 0.00 | 0.00 | 0.00 | 57 | 1010.2 |
| 20260505032504 | 59 | 219 | 8.0 | 12.0 | 0.00 | 0.00 | 0.00 | 57 | 1010.2 |
| 20260505032006 | 59 | 217 | 9.0 | 14.0 | 0.00 | 0.00 | 0.00 | 56 | 1010.3 |
| 20260505031505 | 59 | 210 | 10.0 | 18.0 | 0.00 | 0.00 | 0.00 | 56 | 1010.4 |
| 20260505031006 | 59 | 200 | 10.0 | 13.0 | 0.00 | 0.00 | 0.00 | 56 | 1010.3 |
| 20260505030004 | 59 | 212 | 9.0 | 14.0 | 0.00 | 0.00 | 0.00 | 55 | 1010.4 |
| 20260505025504 | 59 | 214 | 11.0 | 16.0 | 0.00 | 0.00 | 0.00 | 55 | 1010.3 |
| 20260505025006 | 60 | 203 | 8.0 | 14.0 | 0.00 | 0.00 | 0.00 | 54 | 1010.3 |
| 20260505024504 | 60 | 213 | 10.0 | 18.0 | 0.00 | 0.00 | 0.00 | 54 | 1010.3 |
| 20260505023504 | 60 | 221 | 11.0 | 20.0 | 0.00 | 0.00 | 0.00 | 53 | 1010.3 |
| 20260505023006 | 60 | 221 | 11.0 | 20.0 | 0.00 | 0.00 | 0.00 | 53 | 1010.3 |
| 20260505022504 | 60 | 212 | 11.0 | 20.0 | 0.00 | 0.00 | 0.00 | 52 | 1010.2 |
| 20260505022006 | 61 | 212 | 12.0 | 17.0 | 0.00 | 0.00 | 0.00 | 52 | 1010.3 |
| 20260505021504 | 61 | 212 | 9.0 | 18.0 | 0.00 | 0.00 | 0.00 | 51 | 1010.3 |
| 20260505020504 | 61 | 213 | 8.0 | 14.0 | 0.00 | 0.00 | 0.00 | 51 | 1010.3 |
| 20260505020004 | 61 | 208 | 9.0 | 16.0 | 0.00 | 0.00 | 0.00 | 51 | 1010.3 |
| 20260505015504 | 61 | 210 | 8.0 | 17.0 | 0.00 | 0.00 | 0.00 | 51 | 1010.3 |
| 20260505015006 | 61 | 224 | 9.0 | 15.0 | 0.00 | 0.00 | 0.00 | 50 | 1010.3 |
| 20260505014504 | 61 | 215 | 9.0 | 15.0 | 0.00 | 0.00 | 0.00 | 50 | 1010.2 |
| 20260505014007 | 61 | 218 | 10.0 | 16.0 | 0.00 | 0.00 | 0.00 | 50 | 1010.2 |
| 20260505013503 | 61 | 211 | 9.0 | 15.0 | 0.00 | 0.00 | 0.00 | 50 | 1010.1 |
| 20260505013006 | 62 | 203 | 12.0 | 17.0 | 0.00 | 0.00 | 0.00 | 50 | 1010.0 |
| 20260505012005 | 62 | 219 | 12.0 | 20.0 | 0.00 | 0.00 | 0.00 | 49 | 1009.7 |
| 20260505011504 | 62 | 213 | 10.0 | 16.0 | 0.00 | 0.00 | 0.00 | 49 | 1009.7 |
| 20260505011006 | 62 | 216 | 14.0 | 21.0 | 0.00 | 0.00 | 0.00 | 49 | 1009.5 |
| 20260505010504 | 62 | 218 | 13.0 | 18.0 | 0.00 | 0.00 | 0.00 | 49 | 1009.4 |
| 20260505010004 | 62 | 218 | 14.0 | 24.0 | 0.00 | 0.00 | 0.00 | 48 | 1009.4 |
| 20260505005504 | 63 | 216 | 16.0 | 21.0 | 0.00 | 0.00 | 0.00 | 48 | 1009.3 |
| 20260505005006 | 62 | 196 | 13.0 | 18.0 | 0.00 | 0.00 | 0.00 | 49 | 1009.3 |
| 20260505004504 | 62 | 211 | 10.0 | 17.0 | 0.00 | 0.00 | 0.00 | 49 | 1009.2 |
| 20260505004006 | 62 | 213 | 10.0 | 15.0 | 0.00 | 0.00 | 0.00 | 49 | 1009.2 |
| 20260505003504 | 62 | 206 | 11.0 | 18.0 | 0.00 | 0.00 | 0.00 | 49 | 1009.0 |
| 20260505003005 | 63 | 217 | 10.0 | 16.0 | 0.00 | 0.00 | 0.00 | 49 | 1008.8 |
| 20260505002504 | 63 | 206 | 10.0 | 17.0 | 0.00 | 0.00 | 0.00 | 49 | 1008.7 |
| 20260505002006 | 63 | 211 | 10.0 | 17.0 | 0.00 | 0.00 | 0.00 | 48 | 1008.6 |
| 20260505001504 | 64 | 203 | 10.0 | 17.0 | 0.00 | 0.00 | 0.00 | 47 | 1008.4 |
| 20260505001006 | 65 | 209 | 11.0 | 24.0 | 0.00 | 0.00 | 0.00 | 45 | 1008.3 |
| 20260505000504 | 65 | 205 | 12.0 | 23.0 | 0.00 | 0.00 | 0.00 | 44 | 1008.2 |
| 20260505000004 | 65 | 208 | 10.0 | 18.0 | 0.00 | 0.00 | 0.00 | 44 | 1008.1 |
| 20260504235504 | 66 | 189 | 12.0 | 21.0 | 0.00 | 0.00 | 0.00 | 44 | 1008.0 |
| 20260504235006 | 66 | 200 | 13.0 | 28.0 | 0.00 | 0.00 | 0.00 | 44 | 1007.9 |
| 20260504234504 | 66 | 211 | 12.0 | 22.0 | 0.00 | 0.00 | 0.00 | 43 | 1007.9 |
| 20260504234006 | 66 | 221 | 14.0 | 24.0 | 0.00 | 0.00 | 0.00 | 43 | 1007.8 |
| 20260504233504 | 67 | 216 | 17.0 | 26.0 | 0.00 | 0.00 | 0.00 | 42 | 1007.8 |
| 20260504233006 | 67 | 169 | 17.0 | 29.0 | 0.00 | 0.00 | 0.00 | 42 | 1007.7 |
| 20260504231504 | 68 | 207 | 10.0 | 20.0 | 0.00 | 0.00 | 0.00 | 41 | 1007.3 |
| 20260504231006 | 68 | 209 | 12.0 | 21.0 | 0.00 | 0.00 | 0.00 | 40 | 1007.1 |
| 20260504230505 | 68 | 210 | 12.0 | 20.0 | 0.00 | 0.00 | 0.00 | 40 | 1007.0 |
| 20260504225504 | 69 | 209 | 17.0 | 26.0 | 0.00 | 0.00 | 0.00 | 38 | 1006.8 |
| 20260504225006 | 69 | 219 | 16.0 | 23.0 | 0.00 | 0.00 | 0.00 | 37 | 1006.7 |
| 20260504224505 | 69 | 216 | 16.0 | 21.0 | 0.00 | 0.00 | 0.00 | 36 | 1006.6 |
| 20260504223504 | 70 | 214 | 17.0 | 28.0 | 0.00 | 0.00 | 0.00 | 35 | 1006.4 |
| 20260504223005 | 71 | 229 | 14.0 | 20.0 | 0.00 | 0.00 | 0.00 | 34 | 1006.4 |
| 20260504222504 | 72 | 222 | 9.0 | 21.0 | 0.00 | 0.00 | 0.00 | 31 | 1006.3 |
| 20260504222006 | 72 | 198 | 11.0 | 22.0 | 0.00 | 0.00 | 0.00 | 31 | 1006.3 |
| 20260504221504 | 72 | 219 | 18.0 | 26.0 | 0.00 | 0.00 | 0.00 | 31 | 1006.3 |
| 20260504220004 | 72 | 222 | 14.0 | 20.0 | 0.00 | 0.00 | 0.00 | 30 | 1006.4 |
| 20260504215504 | 73 | 226 | 13.0 | 20.0 | 0.00 | 0.00 | 0.00 | 30 | 1006.4 |
| 20260504215007 | 73 | 219 | 15.0 | 23.0 | 0.00 | 0.00 | 0.00 | 30 | 1006.4 |
| 20260504214504 | 73 | 227 | 12.0 | 20.0 | 0.00 | 0.00 | 0.00 | 30 | 1006.3 |
| 20260504214006 | 73 | 243 | 13.0 | 17.0 | 0.00 | 0.00 | 0.00 | 30 | 1006.4 |
| 20260504213504 | 73 | 224 | 14.0 | 26.0 | 0.00 | 0.00 | 0.00 | 30 | 1006.4 |
| 20260504213006 | 73 | 209 | 17.0 | 24.0 | 0.00 | 0.00 | 0.00 | 30 | 1006.3 |
| 20260504212504 | 73 | 214 | 18.0 | 26.0 | 0.00 | 0.00 | 0.00 | 30 | 1006.3 |
| 20260504211504 | 73 | 219 | 14.0 | 21.0 | 0.00 | 0.00 | 0.00 | 30 | 1006.4 |
| 20260504210504 | 73 | 240 | 17.0 | 24.0 | 0.00 | 0.00 | 0.00 | 29 | 1006.4 |
| 20260504205504 | 73 | 222 | 13.0 | 28.0 | 0.00 | 0.00 | 0.00 | 29 | 1006.4 |
| 20260504205006 | 73 | 225 | 16.0 | 28.0 | 0.00 | 0.00 | 0.00 | 29 | 1006.4 |
| 20260504204504 | 73 | 178 | 14.0 | 21.0 | 0.00 | 0.00 | 0.00 | 29 | 1006.4 |
| 20260504204007 | 73 | 238 | 14.0 | 30.0 | 0.00 | 0.00 | 0.00 | 29 | 1006.5 |
| 20260504203006 | 73 | 236 | 16.0 | 26.0 | 0.00 | 0.00 | 0.00 | 28 | 1006.3 |
| 20260504202504 | 74 | 210 | 15.0 | 21.0 | 0.00 | 0.00 | 0.00 | 27 | 1006.4 |
| 20260504202006 | 73 | 225 | 16.0 | 25.0 | 0.00 | 0.00 | 0.00 | 27 | 1006.6 |
| 20260504201504 | 73 | 184 | 16.0 | 25.0 | 0.00 | 0.00 | 0.00 | 27 | 1006.6 |
| 20260504201006 | 73 | 136 | 19.0 | 30.0 | 0.00 | 0.00 | 0.00 | 27 | 1006.6 |
| 20260504200504 | 73 | 214 | 18.0 | 30.0 | 0.00 | 0.00 | 0.00 | 28 | 1006.6 |
| 20260504200004 | 73 | 227 | 20.0 | 29.0 | 0.00 | 0.00 | 0.00 | 27 | 1006.6 |
| 20260504195504 | 73 | 217 | 14.0 | 26.0 | 0.00 | 0.00 | 0.00 | 28 | 1006.5 |
| 20260504194504 | 73 | 226 | 17.0 | 25.0 | 0.00 | 0.00 | 0.00 | 27 | 1006.7 |
| 20260504193006 | 73 | 215 | 17.0 | 25.0 | 0.00 | 0.00 | 0.00 | 28 | 1006.8 |
| 20260504192006 | 73 | 223 | 18.0 | 25.0 | 0.00 | 0.00 | 0.00 | 27 | 1006.7 |
| 20260504191504 | 73 | 237 | 18.0 | 33.0 | 0.00 | 0.00 | 0.00 | 27 | 1006.8 |
| 20260504191006 | 72 | 244 | 14.0 | 23.0 | 0.00 | 0.00 | 0.00 | 27 | 1006.7 |
| 20260504190504 | 72 | 235 | 16.0 | 29.0 | 0.00 | 0.00 | 0.00 | 27 | 1006.9 |
| 20260504185504 | 72 | 275 | 17.0 | 31.0 | 0.00 | 0.00 | 0.00 | 28 | 1006.9 |
| 20260504185005 | 72 | 250 | 14.0 | 24.0 | 0.00 | 0.00 | 0.00 | 28 | 1006.9 |
| 20260504184504 | 72 | 218 | 18.0 | 32.0 | 0.00 | 0.00 | 0.00 | 28 | 1006.9 |
| 20260504184007 | 72 | 213 | 24.0 | 35.0 | 0.00 | 0.00 | 0.00 | 27 | 1006.9 |
| 20260504183504 | 72 | 220 | 20.0 | 28.0 | 0.00 | 0.00 | 0.00 | 27 | 1007.1 |
| 20260504183007 | 72 | 134 | 13.0 | 20.0 | 0.00 | 0.00 | 0.00 | 29 | 1007.0 |
| 20260504182504 | 72 | 231 | 17.0 | 22.0 | 0.00 | 0.00 | 0.00 | 28 | 1007.1 |
| 20260504182006 | 71 | 225 | 19.0 | 26.0 | 0.00 | 0.00 | 0.00 | 28 | 1007.2 |
| 20260504181504 | 71 | 242 | 14.0 | 26.0 | 0.00 | 0.00 | 0.00 | 28 | 1007.1 |
| 20260504181006 | 71 | 309 | 20.0 | 30.0 | 0.00 | 0.00 | 0.00 | 28 | 1007.4 |
| 20260504180503 | 71 | 215 | 20.0 | 30.0 | 0.00 | 0.00 | 0.00 | 28 | 1007.3 |
| 20260504180004 | 71 | 297 | 18.0 | 30.0 | 0.00 | 0.00 | 0.00 | 28 | 1007.3 |
| 20260504175504 | 71 | 264 | 18.0 | 26.0 | 0.00 | 0.00 | 0.00 | 29 | 1007.4 |
| 20260504175006 | 71 | 224 | 18.0 | 39.0 | 0.00 | 0.00 | 0.00 | 29 | 1007.5 |
| 20260504174504 | 70 | 219 | 15.0 | 31.0 | 0.00 | 0.00 | 0.00 | 29 | 1007.4 |
| 20260504174006 | 70 | 228 | 18.0 | 26.0 | 0.00 | 0.00 | 0.00 | 30 | 1007.5 |
| 20260504173504 | 70 | 218 | 16.0 | 26.0 | 0.00 | 0.00 | 0.00 | 30 | 1007.5 |
| 20260504173005 | 69 | 222 | 17.0 | 29.0 | 0.00 | 0.00 | 0.00 | 30 | 1007.4 |
| 20260504172504 | 70 | 221 | 18.0 | 26.0 | 0.00 | 0.00 | 0.00 | 30 | 1007.6 |
| 20260504172006 | 70 | 224 | 19.0 | 26.0 | 0.00 | 0.00 | 0.00 | 30 | 1007.6 |
| 20260504171504 | 70 | 242 | 16.0 | 29.0 | 0.00 | 0.00 | 0.00 | 30 | 1007.4 |
| 20260504171005 | 70 | 218 | 21.0 | 28.0 | 0.00 | 0.00 | 0.00 | 30 | 1007.3 |
| 20260504170504 | 70 | 236 | 13.0 | 29.0 | 0.00 | 0.00 | 0.00 | 31 | 1007.5 |
| 20260504151006 | 67 | 237 | 14.0 | 28.0 | 0.00 | 0.00 | 0.00 | 34 | 1008.9 |
| 20260504150504 | 67 | 233 | 16.0 | 26.0 | 0.00 | 0.00 | 0.00 | 34 | 1009.0 |
| 20260504140504 | 63 | 228 | 14.0 | 22.0 | 0.00 | 0.00 | 0.00 | 39 | 1009.5 |
| 20260504130503 | 59 | 236 | 15.0 | 24.0 | 0.00 | 0.00 | 0.00 | 43 | 1010.1 |
| 20260504110504 | 50 | 221 | 5.0 | 9.0 | 0.00 | 0.00 | 0.00 | 52 | 1010.8 |
| 20260504100504 | 49 | 212 | 3.0 | 6.0 | 0.00 | 0.00 | 0.00 | 54 | 1010.8 |
| 20260504082006 | 48 | 236 | 3.0 | 7.0 | 0.00 | 0.00 | 0.00 | 54 | 1010.4 |
| 20260504081504 | 48 | 236 | 5.0 | 7.0 | 0.00 | 0.00 | 0.00 | 54 | 1010.5 |
| 20260504081006 | 48 | 222 | 3.0 | 6.0 | 0.00 | 0.00 | 0.00 | 54 | 1010.5 |
| 20260504080504 | 48 | 230 | 4.0 | 8.0 | 0.00 | 0.00 | 0.00 | 54 | 1010.5 |